Location: Geyikbay?r?
(36.8756°N, 30.4583°E)
Time: 06:33:07
(UTC+00:00)

Gbstr 26 Del rocket - Pass Details

Date: 05 August 2024
Orbit: 490 x 1235 km, 51.8° (Epoch: 09 September)

Event Time Altitude Azimuth Distance (km) Brightness Sun altitude
Rises 17:24:53 0° 306° (NW) 2,710 8.6 -5.3°
Reaches altitude 10° 17:26:59 10° 301° (WNW) 1,883 7.4 -5.7°
Maximum altitude 17:31:07 54° 225° (SW) 787 3.7 -6.4°
Drops below altitude 10° 17:36:08 10° 148° (SSE) 2,265 5.4 -7.3°
Enters shadow 17:37:21 - 146° (SE) 2,732 5.8 -7.5°
